This demonstration page uses our WeatherBlox Daily Observations layout. Learn more.

Left ArrowRight Arrow

41.55636, -103.73856

Hourly Observations for February 7, 2018

Temp ( °F °C ) Dew Point ( °F °C ) Humidity (%) Winds ( mph kmh ) Pressure ( in mb ) Visibility ( mi km ) Precip ( " mm )
12:53 am 00:53 Cloudy 23 -5 18 -7.8 81 81 NNE 9 15 30.37 1029 10 16 N/A
1:53 am 01:53 Cloudy 23 -5 19 -7.2 85 85 E 6 9 30.37 1028 10 16 N/A
2:08 am 02:08 Cloudy 21 -6 19 -7 93 93 E 9 15 30.48 1032 10 16 N/A
2:53 am 02:53 Cloudy 22 -5.6 19 -7.2 89 89 ESE 9 15 30.37 1028 10 16 N/A
3:53 am 03:53 Cloudy 21 -6.1 18 -7.8 88 88 ESE 7 11 30.36 1028 10 16 N/A
4:53 am 04:53 Cloudy 21 -6.1 18 -7.8 88 88 ESE 10 17 30.35 1028 10 16 N/A
5:53 am 05:53 Mostly Cloudy 20 -6.7 17 -8.3 89 89 ESE 10 17 30.32 1027 10 16 N/A
6:05 am 06:05 Partly Cloudy 19 -7.2 16 -8.9 88 88 ESE 10 17 30.45 1031 10 16 N/A
6:30 am 06:30 Mostly Cloudy 19 -7 16 -9 86 86 ESE 12 19 30.39 1029 10 16 N/A
6:41 am 06:41 Partly Cloudy 18 -7.8 15 -9.4 88 88 ESE 10 17 30.42 1030 10 16 N/A
6:53 am 06:53 Mostly Clear 18 -7.8 15 -9.4 88 88 E 9 15 30.30 1026 10 16 N/A
7:53 am 07:53 Sunny 19 -7.2 16 -8.9 88 88 ESE 10 17 30.30 1026 10 16 N/A
8:53 am 08:53 Sunny 24 -4.4 20 -6.7 84 84 E 8 13 30.27 1025 10 16 N/A
9:53 am 09:53 Mostly Sunny 29 -1.7 23 -5 78 78 E 6 9 30.24 1024 10 16 N/A
10:53 am 10:53 Mostly Cloudy 32 undefined 25 -3.9 75 75 E 3 6 30.23 1024 10 16 N/A
11:53 am 11:53 Mostly Cloudy 39 3.9 26 -3.3 60 60 NW 6 9 30.19 1022 10 16 N/A
12:53 pm 12:53 Sunny 45 7.2 29 -1.7 54 54 W 10 17 30.15 1021 10 16 N/A
1:53 pm 13:53 Cloudy 45 7.2 31 -0.6 58 58 NNW 5 7 30.15 1021 10 16 N/A
2:53 pm 14:53 Cloudy 46 7.8 32 undefined 58 58 NNW 5 7 30.15 1021 10 16 N/A
3:53 pm 15:53 Cloudy 45 7.2 34 1.1 66 66 N N/A 30.19 1022 10 16 N/A
4:53 pm 16:53 Cloudy 41 5 29 -1.7 62 62 N 9 15 30.22 1023 10 16 N/A
5:53 pm 17:53 Cloudy 37 2.8 29 -1.7 73 73 WSW 6 9 30.27 1025 10 16 N/A
6:53 pm 18:53 Mostly Cloudy 38 3.3 29 -1.7 70 70 SSW 6 9 30.26 1025 10 16 N/A
7:53 pm 19:53 Clear 33 0.6 28 -2.2 82 82 N N/A 30.28 1026 10 16 N/A
8:53 pm 20:53 Clear 33 0.6 29 -1.7 85 85 N N/A 30.28 1026 10 16 N/A
9:53 pm 21:53 Cloudy 33 0.6 29 -1.7 85 85 N N/A 30.27 1025 10 16 N/A
10:53 pm 22:53 Cloudy 32 undefined 30 -1.1 92 92 ESE 6 9 30.24 1024 10 16 N/A
11:53 pm 23:53 Mostly Cloudy 31 -0.6 28 -2.2 89 89 E 6 9 30.22 1023 10 16 N/A

Powered by AerisWeather